Regional Weather Roundup
Issued by NWS

Home | Current Version | Previous Version | Text Only | Print | Product List | Glossary On
Versions: 1 2 3 4 5 6 7 8 9 10 11 12 13 14 15 16 17 18 19 20 21 22 23 24 25 26 27 28 29 30 31 32 33 34 35 36 37 38 39 40 41 42 43 44 45 46 47 48 49 50
000
ASUS43 KOAX 190810
RWRNE

WEATHER ROUNDUP FOR NEBRASKA
NATIONAL WEATHER SERVICE OMAHA NE
300 AM CDT FRI SEP 19 2014

NOTES: SATELLITE DATA IS BEING USED TO AUGMENT CLOUD COVER ABOVE
       12000 FEET.
       "FAIR" INDICATES FEW OR NO CLOUDS BELOW 12,000 FEET WITH NO
       SIGNIFICANT WEATHER AND/OR OBSTRUCTIONS TO VISIBILITY.

  * THESE STATIONS DO NOT REPORT WEATHER SUCH AS RAIN...SNOW OR FOG.

NEZ001>004-019>022-054>056-190900-
NEBRASKA PANHANDLE

CITY           SKY/WX    TMP DP  RH WIND       PRES   REMARKS
SCOTTSBLUFF    CLEAR     62  56  80 NE5       29.84F
ALLIANCE       CLEAR     57  55  93 S8        29.84S
CHADRON        PTCLDY    69  58  67 SW10      29.74S
KIMBALL        CLEAR     67  44  42 SW15      29.90F
SIDNEY         CLEAR     63  51  65 SW15      29.90F
$$

NEZ057>060-069>072-079>082-190900-
SOUTHWEST NEBRASKA

CITY           SKY/WX    TMP DP  RH WIND       PRES   REMARKS
NORTH PLATTE   FOG       58  58 100 E7        29.86F VSB 1/4
IMPERIAL       CLEAR     60  56  86 CALM      29.87F
LEXINGTON      CLEAR     64  64  97 S12       29.88S
MCCOOK         FOG       58  58 100 NE3       29.88S VSB 1/4
OGALLALA       CLOUDY    60  60  98 SW3       29.87F FOG
$$

NEZ005>010-023>029-035>040-094-190900-
NORTH CENTRAL NEBRASKA

CITY           SKY/WX    TMP DP  RH WIND       PRES   REMARKS
VALENTINE      CLEAR     63  61  93 S9        29.78F
AINSWORTH      CLOUDY    65  64  96 S15       29.80F
BROKEN BOW     CLEAR     64  61  90 S9        29.86F
O`NEILL        CLOUDY    67  65  91 S16G22    29.83F
ORD            CLOUDY    66  63  90 S14G20    29.86F
THEDFORD       CLOUDY    64  63  97 S13       29.84F FOG
$$

NEZ041-046>049-061>064-073>077-083>087-190900-
SOUTH CENTRAL NEBRASKA

CITY           SKY/WX    TMP DP  RH WIND       PRES   REMARKS
GRAND ISLAND   CLOUDY    66  63  90 S17G25    29.91F
AURORA         CLOUDY    64  64 100 S15       29.92F FOG
HASTINGS       CLOUDY    67  61  81 S17G28    29.92F
HEBRON         CLOUDY    66  62  86 S8        29.95F
HOLDREGE       CLEAR     64  62  91 S15G22    29.90S
KEARNEY *      CLOUDY    64  63  94 SE14G20   29.90F
YORK           CLOUDY    64  63  94 S15G21    29.94F FOG
$$

NEZ011>018-030>034-042>045-190900-
NORTHEAST NEBRASKA

CITY           SKY/WX    TMP DP  RH WIND       PRES   REMARKS
NORFOLK        CLOUDY    62  61  96 S14       29.90F FOG
ALBION         CLOUDY    62  60  94 S15G21    29.90F FOG
BLAIR          CLOUDY    63  60  90 S16       29.96F FOG
COLUMBUS *     CLOUDY    63  59  88 S12G17    29.94F
FREMONT        CLOUDY    64  60  89 SE12      29.96F
TEKAMAH        MOCLDY    60  58  92 SE7       29.95F FOG
WAYNE          CLOUDY    63  60  90 S15       29.91F
$$

NEZ050>053-065>068-078-088>093-190900-
SOUTHEAST NEBRASKA

CITY           SKY/WX    TMP DP  RH WIND       PRES   REMARKS
LINCOLN        CLOUDY    63  60  90 S12       29.96F
OMAHA EPPLEY   CLOUDY    62  58  86 SE12      29.98F
BEATRICE       CLOUDY    63  61  94 S8        29.97S
FALLS CITY     CLOUDY    59  59 100 SE6       29.99F FOG
NEBRASKA CITY  CLOUDY    61  60  97 S13       29.99F FOG
PLATTSMOUTH    CLOUDY    61  58  92 SE9       29.98F FOG
$$

NEZ044-045-051>053-067-190900-
OMAHA AREA

CITY           SKY/WX    TMP DP  RH WIND       PRES   REMARKS
OMAHA EPPLEY   CLOUDY    62  58  86 SE12      29.98F
BLAIR          CLOUDY    63  60  90 S16       29.96F FOG
FREMONT        CLOUDY    64  60  89 SE12      29.96F
MILLARD        CLOUDY    62  60  91 SE9       29.97F FOG
OFFUTT AFB     CLOUDY    61  61 100 SE10      29.98F
PLATTSMOUTH    CLOUDY    61  58  92 SE9       29.98F FOG
WAHOO          CLOUDY    63  59  87 S9        29.95F
$$


USA.gov is the U.S. government's official web portal to all federal, state and local government web resources and services.